Location: Buena Vista
(37.7110°N, 119.7938°W)
Time: 23:52:53
(UTC+00:00)

Hubble Space Telescope - Pass Details

Date: 16 August 2024
Orbit: 505 x 509 km, 28.5° (Epoch: 16 September)

Event Time Altitude Azimuth Distance (km) Brightness Sun altitude
Exits shadow 11:36:41 20° 168° (SSE) 1,214 2.3 -18.5°
Drops below altitude 10° 11:39:21 10° 126° (SE) 1,713 3.6 -18.0°
Sets 11:42:00 0° 109° (ESE) 2,600 4.8 -17.6°
